Weather History for LSZA - December, 2013

Change the Weather History Date:

Wednesday, December 11, 2013

  Actual Average Record
Temperature  
Mean Temperature 38 °F -  
Max Temperature 50 °F 43 °F 57 °F (2007)
Min Temperature 26 °F 33 °F 24 °F (2012)
Degree Days  
Heating Degree Days 27    
Moisture  
Dew Point 30 °F    
Average Humidity 77    
Maximum Humidity 100    
Minimum Humidity 47    
Precipitation  
Precipitation 0.00 in 0.09 in - ()
Sea Level Pressure  
Sea Level Pressure 30.58 in    
Wind  
Wind Speed 2 mph ()    
Max Wind Speed 5 mph    
Max Gust Speed -    
Averages and records for this station are not official NWS values.
T = Trace of Precipitation, MM = Missing Value Source: Averaged Metar Reports

Daily Weather History Graph

Daily Weather History Graph

Search for Another Location

Airport or City:

Trip Planner

Search our weather history database for the weather conditions in past years. The results will help you decide how hot, cold, wet, or windy it might be!

Date:

Astronomy

Dec. 11, 2013 Rise Set
Actual Time 7:56 AM CET 4:39 PM CET
Civil Twilight 7:21 AM CET 5:13 PM CET
Nautical Twilight 6:43 AM CET 5:51 PM CET
Astronomical Twilight 6:07 AM CET 6:27 PM CET
Moon 1:18 PM CET (12/11) 1:44 AM CET (12/11)
Length of Visible Light 9h 51m
Length of Day
8h 42m
Waxing Gibbous, 69% of the Moon is Illuminated
Dec 11
Waxing Gibbous
Dec 17
Full
Dec 25
Last Quarter
Jan 1
New
Jan 8
First Quarter

Hourly Weather History & Observations

Time (CET) Temp. Windchill Dew Point Humidity Pressure Visibility Wind Dir Wind Speed Gust Speed Precip Events Conditions
12:00 AM 38 °F - 29 °F 60% 30.68 in - NNW 2.3 mph - -  
12:20 AM 30.2 °F - 30.2 °F 100% 30.63 in - NNE 1.2 mph - N/A   Clear
12:50 AM 30.2 °F 26.7 °F 28.4 °F 93% 30.63 in - NNW 3.5 mph - N/A   Clear
1:20 AM 30.2 °F 26.7 °F 30.2 °F 100% 30.63 in - North 3.5 mph - N/A   Clear
1:50 AM 28.4 °F - 26.6 °F 93% 30.63 in - North 2.3 mph - N/A   Clear
2:00 AM 37 °F - 29 °F 62% 30.68 in - North 3.5 mph - -  
2:20 AM 30.2 °F 26.7 °F 28.4 °F 93% 30.63 in - North 3.5 mph - N/A   Clear
2:50 AM 28.4 °F 24.6 °F 26.6 °F 93% 30.63 in - North 3.5 mph - N/A   Clear
3:00 AM 36 °F - 29 °F 66% 30.68 in - North 3.5 mph - -  
3:20 AM 26.6 °F - 26.6 °F 100% 30.63 in - Variable 1.2 mph - N/A   Clear
3:50 AM 28.4 °F - 26.6 °F 93% 30.63 in - North 2.3 mph - N/A   Clear
4:20 AM 26.6 °F - 26.6 °F 100% 30.63 in - North 2.3 mph - N/A   Clear
4:50 AM 30.2 °F 26.7 °F 28.4 °F 93% 30.60 in - North 3.5 mph - N/A   Clear
5:00 AM 36 °F - 28 °F 65% 30.65 in - NNW 1.2 mph - -  
5:20 AM 26.6 °F - 24.8 °F 93% 30.60 in - North 1.2 mph - N/A   Clear
5:50 AM 26.6 °F - 24.8 °F 93% 30.60 in - North 2.3 mph - N/A   Clear
6:00 AM 35 °F - 28 °F 68% 30.65 in - North 3.5 mph - -  
6:20 AM 26.6 °F 22.6 °F 26.6 °F 100% 30.60 in - North 3.5 mph - N/A   Clear
6:50 AM 28.4 °F - 26.6 °F 93% 30.60 in - Variable 1.2 mph - N/A   Clear
7:20 AM 28.4 °F 24.6 °F 26.6 °F 93% 30.60 in - NNW 3.5 mph - N/A   Clear
7:50 AM 28.4 °F - 26.6 °F 93% 30.60 in - NNW 2.3 mph - N/A   Clear
8:00 AM 36 °F - 28 °F 63% 30.64 in - North 3.5 mph - -  
8:20 AM 28.4 °F 24.6 °F 26.6 °F 93% 30.60 in - North 3.5 mph - N/A   Clear
8:50 AM 28.4 °F - 26.6 °F 93% 30.60 in - Variable 2.3 mph - N/A   Clear
9:00 AM 36 °F - 28 °F 64% 30.64 in - North 3.5 mph - -  
9:20 AM 30.2 °F 26.7 °F 26.6 °F 86% 30.60 in - North 3.5 mph - N/A   Clear
9:50 AM 32.0 °F - 30.2 °F 93% 30.60 in - Variable 1.2 mph - N/A   Clear
10:20 AM 37.4 °F - 32.0 °F 81% 30.60 in - Variable 1.2 mph - N/A   Clear
10:50 AM 41.0 °F - 32.0 °F 70% 30.60 in - Variable 1.2 mph - N/A   Clear
11:00 AM 42 °F - 33 °F 60% 30.62 in - SSW 1.2 mph - -  
11:20 AM 41.0 °F 39.0 °F 32.0 °F 70% 30.57 in - SSW 3.5 mph - N/A   Clear
11:50 AM 42.8 °F 41.1 °F 32.0 °F 66% 30.57 in - SSW 3.5 mph - N/A   Clear
12:00 PM 44 °F - 35 °F 61% 30.60 in - South 2.3 mph - -  
12:20 PM 44.6 °F - 32.0 °F 61% 30.57 in - Variable 2.3 mph - N/A   Clear
12:50 PM 46.4 °F 45.2 °F 32.0 °F 57% 30.54 in - South 3.5 mph - N/A   Clear
1:20 PM 48.2 °F - 30.2 °F 50% 30.54 in - Variable 2.3 mph - N/A   Clear
1:50 PM 48.2 °F - 30.2 °F 50% 30.51 in - South 3.5 mph - N/A   Clear
2:00 PM 47 °F - 36 °F 55% 30.55 in - South 1.2 mph - -  
2:20 PM 48.2 °F - 32.0 °F 54% 30.51 in - South 3.5 mph - N/A   Clear
2:50 PM 50.0 °F - 32.0 °F 50% 30.51 in - SSW 3.5 mph - N/A   Clear
3:00 PM 47 °F - 35 °F 53% 30.53 in - South 1.2 mph - -  
3:20 PM 50.0 °F - 30.2 °F 47% 30.51 in - SSW 2.3 mph - N/A   Clear
3:50 PM 50.0 °F - 32.0 °F 50% 30.51 in - Variable 2.3 mph - N/A   Clear
4:20 PM 46.4 °F - 33.8 °F 62% 30.51 in - Variable 1.2 mph - N/A   Clear
4:50 PM 42.8 °F - 35.6 °F 76% 30.51 in - Variable 2.3 mph - N/A   Clear
5:00 PM 45 °F - 36 °F 61% 30.54 in - West 1.2 mph - -  
5:20 PM 39.2 °F - 32.0 °F 75% 30.51 in - Variable 2.3 mph - N/A   Clear
5:50 PM 41.0 °F - 33.8 °F 76% 30.51 in - NNW 1.2 mph - N/A   Clear
6:00 PM 43 °F - 35 °F 66% 30.55 in - West 1.2 mph - -  
6:20 PM 37.4 °F - 32.0 °F 81% 30.51 in - Variable 1.2 mph - N/A   Clear
6:50 PM 35.6 °F - 32.0 °F 87% 30.51 in - Variable 1.2 mph - N/A   Clear
7:20 PM 35.6 °F - 32.0 °F 87% 30.51 in - North 2.3 mph - N/A   Clear
7:50 PM 33.8 °F 30.8 °F 30.2 °F 87% 30.54 in - North 3.5 mph - N/A   Clear
8:00 PM 41 °F - 32 °F 60% 30.57 in - North 3.5 mph - -  
8:20 PM 32.0 °F - 28.4 °F 87% 30.54 in - Variable 2.3 mph - N/A   Clear
8:50 PM 32.0 °F - 28.4 °F 87% 30.54 in - Variable 2.3 mph - N/A   Clear
9:00 PM 40 °F - 31 °F 61% 30.57 in - North 2.3 mph - -  
9:20 PM 32.0 °F - 32.0 °F 100% 30.54 in - Variable 1.2 mph - N/A   Clear
9:50 PM 30.2 °F 26.7 °F 28.4 °F 93% 30.54 in - North 3.5 mph - N/A   Clear
10:20 PM 32.0 °F - 30.2 °F 93% 30.54 in - Variable 2.3 mph - N/A   Clear
10:50 PM 30.2 °F - 28.4 °F 93% 30.54 in - Variable 1.2 mph - N/A   Clear
11:00 PM 38 °F - 31 °F 67% 30.58 in - North 4.6 mph - -  
11:20 PM 30.2 °F - 28.4 °F 93% 30.54 in - Variable 2.3 mph - N/A   Clear
11:50 PM 30.2 °F - 28.4 °F 93% 30.54 in - Variable 1.2 mph - N/A   Clear